Location: Unspecified
(38.9820°N, 94.4650°W)
Time: 17:36:48
(UTC-05:00)

Tiangong 2 - Visible Passes

Search period start: 25 March 2019 00:00
Search period end: 04 April 2019 00:00
Orbit: 380 x 389 km, 42.8° (Epoch: 25 March)

Date Brightness Start Highest point End Pass type
(mag) Time Alt. Az. Time Alt. Az. Time Alt. Az.
25 Mar 3.5 06:07:50 11° SSW 06:07:50 11° SSW 06:08:10 10° SSW visible
28 Mar 3.6 21:15:59 10° SSW 21:16:23 13° SSW 21:16:23 13° SSW visible
29 Mar 3.1 20:17:30 10° S 20:19:17 14° SE 20:20:31 12° ESE visible
29 Mar 4.1 21:52:32 10° WSW 21:52:47 12° WSW 21:52:47 12° WSW visible
30 Mar 1.4 20:53:09 10° SW 20:56:10 45° SSE 20:56:42 40° ESE visible
31 Mar 1.9 21:30:12 10° W 21:32:42 50° WNW 21:32:42 50° WNW visible
01 Apr 1.0 20:30:37 10° WSW 20:33:45 80° SSE 20:36:17 15° ENE visible
01 Apr 4.1 22:07:40 10° WNW 22:08:31 17° WNW 22:08:31 17° WNW visible
02 Apr 1.8 21:07:57 10° W 21:10:59 48° N 21:11:58 33° NE visible
03 Apr 1.4 20:08:14 10° W 20:11:22 66° NNW 20:14:29 10° ENE visible
03 Apr 2.8 21:45:23 10° WNW 21:47:33 31° NW 21:47:33 31° NW visible
